Hourly Weather Roundup
Issued by NWS Central Illinois

Home | Current Version | Previous Version | Text Only | Print | Product List | Glossary On
Versions: 1 2 3 4 5 6 7 8 9 10 11 12 13 14 15 16 17 18 19 20 21 22 23 24 25 26 27 28 29 30 31 32 33 34 35 36 37 38 39 40 41 42 43 44 45 46 47 48 49 50
000
NZUS43 KILX 191110
HWRILX

Area Weather Roundup
National Weather Service Lincoln IL
600 AM CDT THU APR 19 2018

NOTE:  "FAIR" indicates few or no clouds below 12,000 feet, with
       no sigificant weather and/or obstructions to visibility.


CITY           SKY/WX    TMP DP  RH WIND       PRES   REMARKS
Bloomington    CLOUDY    33  31  92 N13       30.18R WCI  24
Champaign      CLOUDY    34  32  92 NW16      30.14R WCI  24
Danville       CLOUDY    34  33  96 NW12      30.09R WCI  25
Decatur        CLOUDY    34  30  85 NW14G20   30.17R WCI  25
Effingham      CLOUDY    36  31  82 W10       30.19R WCI  28
Flora          CLOUDY    37  29  71 NW13      30.18R WCI  29
Galesburg      CLOUDY    37  35  93 NW6       30.25R WCI  32
Jacksonville   CLOUDY    33  29  83 NW10      30.23R WCI  25
Lacon          CLOUDY    33  31  91 N8        30.21R WCI  26
Lawrenceville  CLOUDY    37  29  72 NW16      30.16R WCI  28
Litchfield     CLOUDY    33  29  83 NW12      30.21R WCI  25
$$


CITY           SKY/WX    TMP DP  RH WIND       PRES   REMARKS
Lincoln        DRIZZLE   35  33  94 NW5       30.20R WCI  31
Macomb         CLOUDY    33  31  92 NW14      30.26R WCI  23
Mattoon        CLOUDY    34  29  82 NW15      30.14R WCI  24
Mt Carmel AP   MOCLDY    36  28  74 NW12      30.16R WCI  28
Olney-Noble AP CLOUDY    35  30  82 NW10      30.18R WCI  27
Paris AP       CLOUDY    34  32  92 NW14      30.13R WCI  24
Peoria         CLOUDY    35  30  82 N10       30.22R WCI  27
Pontiac        CLOUDY    34  34  99 N9        30.18R WCI  27
Rantoul        CLOUDY    36  34  93 NW13      30.14R WCI  27
Robinson       CLOUDY    35  29  80 NW14      30.16R WCI  26
Springfield    CLOUDY    36  31  82 NW12      30.21R WCI  28
Taylorville    CLOUDY    34  29  84 NW12      30.20R WCI  25
$$

...REGIONAL REPORTS...


CITY           SKY/WX    TMP DP  RH WIND       PRES   REMARKS
Chicago O`Hare FAIR      32  29  88 N10       30.15R WCI  24
Kankakee       MOCLDY    34  33  95 NW8       30.16R WCI  27
La Salle       FAIR      33  31  92 N10       30.21R WCI  25
Moline         CLOUDY    35  31  85 NW8       30.24R WCI  29
Mount Sterling CLOUDY    32  29  90 N10       30.24R WCI  24
Mount Vernon   CLOUDY    37  27  67 VRB7      30.20R WCI  32
Pittsfield     CLOUDY    35  30  83 NW12      30.25R WCI  26
Quincy         CLOUDY    34  28  79 NW12      30.26R WCI  25
Rockford       FAIR      30  24  78 N9        30.22R WCI  22
$$


CITY           SKY/WX    TMP DP  RH WIND       PRES   REMARKS
Burlington     CLOUDY    34  29  82 N8        30.26R WCI  27
Cedar Rapids   FAIR      29  26  89 N9        30.27R WCI  20
Des Moines     PTCLDY    33  28  81 N10       30.30R WCI  25
Kirksville     CLOUDY    31  29  92 NW7       30.28R WCI  24
Ottumwa        CLEAR     31  28  89 N13       30.28R WCI  21
St Louis       CLOUDY    36  25  64 NW10      30.24R WCI  28
$$


CITY           SKY/WX    TMP DP  RH WIND       PRES   REMARKS
Terre Haute    CLOUDY    35  29  78 NW12G25   30.12R WCI  27
Evansville     CLOUDY    38  26  62 NW10G21   30.17R WCI  31
Indianapolis   CLOUDY    35  31  85 NW17      30.06R WCI  25
Lafayette      CLOUDY    35  32  88 N13G20    30.10R WCI  26
Madison        FAIR      24  19  81 N8        30.22R WCI  15
Milwaukee      FAIR      31  22  69 NW9       30.17R WCI  23
$$





USA.gov is the U.S. government's official web portal to all federal, state and local government web resources and services.